Location: Nashville
(36.1660°N, 86.7840°W)
Time: 07:55:10
(UTC-05:00)

EO-88 - Pass Details

Date: 24 May 2022
Orbit: 457 x 464 km, 97.3° (Epoch: 27 June)

Event Time Altitude Azimuth Distance (km) Brightness Sun altitude
Exits shadow 21:18:22 12° 71° (ENE) 1,499 ? -15.0°
Maximum altitude 21:18:33 12° 68° (ENE) 1,497 ? -15.1°
Drops below altitude 10° 21:19:55 10° 45° (NE) 1,619 ? -15.3°
Sets 21:23:03 0° 13° (NNE) 2,503 ? -15.7°
